Regional Weather Roundup
Issued by NWS Columbia, SC

Home | Current Version | Previous Version | Text Only | Print | Product List | Glossary On
Versions: 1 2 3 4 5 6 7 8 9 10 11 12 13 14 15 16 17 18 19 20 21 22 23 24 25 26 27 28 29 30 31 32 33 34 35 36 37 38 39 40 41 42 43 44 45 46 47 48 49 50
000
ASUS42 KCAE 010110
RWRCAE
REGIONAL WEATHER ROUNDUP
NATIONAL WEATHER SERVICE COLUMBIA SC
800 PM EST SAT JAN 31 2015

NOTE: "FAIR" INDICATES FEW OR NO CLOUDS BELOW 12,000 FEET WITH NO
SIGNIFICANT WEATHER AND/OR OBSTRUCTIONS TO VISIBILITY.

NOT ALL STATIONS ARE QUALITY CONTROLLED BY THE NATIONAL
WEATHER SERVICE. USE DATA WITH CAUTION...ESPECIALLY
DEWPOINT OBSERVATIONS.

SCZ001>056-GAZ040-063>065-077-010200-
...UPSTATE SOUTH CAROLINA...

CITY           SKY/WX    TMP DP  RH WIND       PRES   REMARKS
ANDERSON       FAIR      44  24  45 CALM      30.31F
LIBERTY        FAIR      41  28  59 MISG      30.30S
SPARTANBURG    FAIR      43  19  39 CALM      30.30S
CLEMSON        FAIR      47  18  31 CALM      30.31F
GREENVILLE     FAIR      47  17  30 SW3       30.31S
GREENWOOD      FAIR      44  19  36 CALM      30.33S
GREER          FAIR      45  18  34 S5        30.29F
ROCK HILL      FAIR      33  17  51 SW6       30.31R WCI  28
CHESTER        FAIR      41  14  33 S3        30.32R
LAURENS        FAIR      43  30  61 SW5       30.31S


...CENTRAL SOUTH CAROLINA...

CITY           SKY/WX    TMP DP  RH WIND       PRES   REMARKS
COLUMBIA APT   MOCLDY    44  28  53 CALM      30.34R
COLUMBIA OWENS FAIR      44  25  47 CALM      30.35R
DARLINGTON     FAIR      37  19  48 CALM      30.35R
FLORENCE       FAIR      40  20  44 S3        30.34R
MCENTIRE ANGB  CLOUDY    39  25  56 E2        30.34R
ORANGEBURG     FAIR      41  25  53 CALM      30.34S
SUMTER SHAW    CLOUDY    42  28  57 S2        30.32S
NEWBERRY       FAIR      41  25  52 S5        30.35F
AIKEN          FAIR      45  27  49 CALM      30.36S
BARNWELL       FAIR      45  27  49 CALM      30.35S
MANNING        FAIR      41  27  56 CALM      30.35S
CAMDEN         FAIR      39  23  52 CALM      30.34S
LANCASTER      FAIR      41  16  36 MISG      30.32S
WINNSBORO      FAIR      43  21  42 S5        30.32S


...EASTERN AND COASTAL SOUTH CAROLINA...

CITY           SKY/WX    TMP DP  RH WIND       PRES   REMARKS
MYRTLE BEACH   CLEAR     41  25  52 SW6       30.38R
N MYRTLE BCH   FAIR      39  29  67 SW6       30.35R WCI  35
CONWAY         FAIR      41  28  60 S5        30.36R
MARION         FAIR      36  23  60 CALM      30.35R
HARTSVILLE     FAIR      39  23  52 CALM      30.33R
FLORENCE       FAIR      40  20  44 S3        30.34R
DARLINGTON     FAIR      37  19  48 CALM      30.35R
CHARLESTON APT FAIR      41  26  55 S6        30.37S
MOUNT PLEASANT LGT RAIN  36  32  87 CALM      30.37S
WALTERBORO     FAIR      43  23  45 CALM      30.37S
BEAUFORT       FAIR      41  29  62 S3        30.37S


...EASTERN GEORGIA...

CITY           SKY/WX    TMP DP  RH WIND       PRES   REMARKS
AUGUSTA BUSH F MOCLDY    45  22  40 CALM      30.33S
AUGUSTA DANIEL MOCLDY    51  17  26 S3        30.33S
THOMSON        CLOUDY    47  32  55 CALM      30.37S
WASHINGTON     FAIR      45  36  70 CALM      30.32R
CLAXTON        FAIR      45  32  61 CALM      30.35S
SYLVANIA       PTCLDY    44  29  55 CALM      30.36R
STATESBORO     CLEAR     44  27  49 CALM      30.35R
SAVANNAH       CLEAR     42  25  50 SE5       30.37S


...SOUTHERN NORTH CAROLINA...

CITY           SKY/WX    TMP DP  RH WIND       PRES   REMARKS
CHARLOTTE      MOCLDY    39  13  34 CALM      30.30S
MONROE         FAIR      40  15  36 CALM      30.30R
WADESBORO      FAIR      35  23  61 CALM      30.31S
ROCKINGHAM       N/A     43  15  31 S5        30.32S
RUTHERFORDTON  FAIR      44  15  30 SW3       30.30S
ASHEVILLE      FAIR      36  15  42 CALM      30.27F

$$


USA.gov is the U.S. government's official web portal to all federal, state and local government web resources and services.